Location: Archamps
(46.1365°N, 6.1329°E)
Time: 12:19:14
(UTC+00:00)

In-Cosmos 22 Rocket - Visible Passes

Search period start: 25 September 2023 00:00
Search period end: 05 October 2023 00:00
Orbit: 791 x 887 km, 81.2° (Epoch: 24 September)

Date Brightness Start Highest point End Pass type
(mag) Time Alt. Az. Time Alt. Az. Time Alt. Az.
25 Sep 6.3 21:13:40 10° N 21:15:34 19° NNE 21:15:34 19° NNE visible
25 Sep 6.8 22:56:10 10° NNW 22:57:19 16° NNW 22:57:19 16° NNW visible
26 Sep 6.3 20:58:12 10° N 21:00:03 18° NNE 21:00:03 18° NNE visible
26 Sep 6.7 22:40:30 10° NNW 22:41:48 17° NNW 22:41:48 17° NNW visible
27 Sep 6.3 20:42:46 10° NNE 20:44:33 17° NNE 20:44:33 17° NNE visible
27 Sep 6.6 22:24:51 10° NNW 22:26:18 18° NNW 22:26:18 18° NNW visible
28 Sep 6.3 20:27:22 10° NNE 20:29:04 16° NNE 20:29:04 16° NNE visible
28 Sep 6.6 22:09:13 10° NNW 22:10:49 19° NNW 22:10:49 19° NNW visible
29 Sep 6.3 20:12:00 10° NNE 20:13:35 15° NNE 20:13:35 15° NNE visible
29 Sep 6.5 21:53:35 10° NNW 21:55:20 20° NNW 21:55:20 20° NNW visible
30 Sep 6.4 19:56:42 10° NNE 19:58:07 14° NE 19:58:07 14° NE visible
30 Sep 6.4 21:37:58 10° NNW 21:39:52 22° NNW 21:39:52 22° NNW visible
01 Oct 6.4 19:41:28 10° NNE 19:42:39 13° NE 19:42:39 13° NE visible
01 Oct 6.3 21:22:24 10° N 21:24:24 23° N 21:24:24 23° N visible
02 Oct 6.4 19:26:22 10° NNE 19:27:12 11° NE 19:27:12 11° NE visible
02 Oct 6.2 21:06:49 10° N 21:08:58 24° N 21:08:58 24° N visible
03 Oct 6.4 19:11:35 10° NE 19:11:46 10° NE 19:11:46 10° NE visible
03 Oct 6.1 20:51:14 10° N 20:53:31 24° N 20:53:31 24° N visible
03 Oct 7.1 22:35:03 10° NW 22:35:17 11° NW 22:35:17 11° NW visible
04 Oct 6.0 20:35:42 10° N 20:38:06 25° N 20:38:06 25° N visible
04 Oct 7.0 22:19:13 10° NW 22:19:51 12° NW 22:19:51 12° NW visible
